Temperature
12 12 13 12 13 13 13 13 14 14 14 14 14 14 14 14 14 14 14 14 14 14 14 14 14 14 14 14 14 15 15 15 15 15 15 15 15 15 15 15 15 15 15
12 12 12 12 12 13 13 13 13 13 13 13 14 14 14 14 14 14 14 14 14 14 14 14 14 14 14 14 14 14 14 14 14 14 14 14 14 14 14 15 15 15 15
12 12 12 12 12 12 13 13 13 13 13 13 13 13 14 14 14 14 14 14 14 14 14 14 14 14 14 14 14 14 14 14 14 14 14 14 14 14 14 14 14 14 14
12 12 12 12 12 12 12 12 13 13 13 13 13 13 13 13 13 13 14 14 14 14 14 14 14 14 14 14 14 14 14 14 14 14 14 14 14 14 14 14 14 14 14
11 12 12 12 12 12 12 12 12 12 13 13 13 13 13 13 13 13 13 13 13 13 13 13 13 14 14 14 13 13 14 13 13 14 14 14 14 14 14 14 14 14 14
11 11 11 11 12 12 12 12 12 12 12 12 13 12 13 13 13 13 13 13 13 13 13 13 13 13 13 13 13 13 13 13 13 13 13 13 13 13 14 14 14 14 14
11 11 11 11 11 11 11 12 12 12 12 12 12 12 12 12 12 12 12 13 13 13 13 13 13 13 13 13 13 13 13 13 13 13 13 13 13 13 13 14 13 14 14
11 11 11 11 11 11 11 11 11 12 12 12 12 12 12 12 12 12 12 12 12 12 13 13 13 12 12 12 13 12 12 13 13 13 13 13 13 13 13 13 13 13 13
10 10 10 11 11 11 11 11 11 11 11 11 12 12 12 12 12 12 12 12 12 12 12 12 12 12 12 12 12 12 12 12 12 12 12 13 13 13 13 13 13 13 13
10 10 10 10 10 10 10 10 11 11 11 11 11 11 11 11 11 11 11 11 12 12 12 12 12 12 12 12 12 12 12 12 12 12 12 12 12 12 12 12 12 13 13
9 9 9 10 10 10 10 10 10 10 10 10 10 11 11 11 11 11 11 11 11 11 11 12 12 11 11 11 11 11 11 11 12 12 12 12 12 12 12 12 12 12 12
9 9 9 9 9 9 10 10 10 10 10 10 10 10 10 10 10 10 10 11 11 11 11 11 11 11 11 11 11 11 11 11 11 11 11 11 11 11 11 12 12 12 12
9 9 9 9 9 9 9 9 9 9 9 9 9 9 10 10 10 10 10 10 10 10 10 10 11 11 11 11 11 11 11 11 11 11 11 11 11 11 11 11 11 11 11
8 8 8 8 8 8 8 9 9 9 9 9 9 9 9 9 9 9 10 10 10 10 10 10 10 10 10 10 10 10 10 10 10 10 11 11 11 11 11 11 11 11 11
8 8 8 8 8 8 8 8 8 8 8 8 8 8 8 9 9 9 9 9 9 9 9 9 9 9 10 10 10 10 10 10 10 10 10 10 10 10 10 10 11 11 10
7 7 7 7 7 7 7 7 7 7 8 8 8 8 8 8 8 8 8 8 8 8 8 8 8 9 9 9 9 9 9 9 9 9 9 9 10 10 10 10 10 10 10
7 7 7 7 7 7 7 7 7 7 7 7 7 7 7 7 7 7 8 8 8 8 8 7 8 8 8 8 8 8 8 8 9 9 9 9 9 9 9 9 9 9 9
7 7 6 6 6 6 6 6 6 6 6 6 7 6 7 7 7 7 7 7 7 7 7 7 7 7 7 7 7 7 8 8 8 8 8 8 8 8 8 8 8 9 9
6 6 6 6 6 6 6 6 6 6 6 6 6 6 6 6 6 6 6 6 6 6 6 6 6 6 6 6 6 7 7 7 7 7 7 7 7 7 7 7 8 8 8
5 5 5 5 5 5 5 5 5 5 5 5 5 5 5 5 5 5 5 5 5 5 5 5 5 5 5 5 6 6 6 6 6 6 6 6 6 6 7 7 7 7 7
5 5 5 5 5 5 5 5 5 5 5 5 5 5 5 5 5 5 5 5 5 5 5 5 5 5 5 4 5 5 5 5 5 5 5 6 6 6 6 6 6 6 6
4 4 4 4 4 4 4 4 4 4 4 4 4 4 4 4 4 4 4 4 4 4 4 4 4 4 4 4 3 3 3 4 4 4 5 5 5 5 5 5 5 5 6
4 4 4 3 3 3 3 3 3 3 4 4 4 3 3 3 3 3 3 3 3 3 3 3 3 3 3 3 3 2 2 2 2 3 4 4 4 4 4 4 5 5 5
3 3 3 3 3 3 3 3 3 3 3 3 3 3 3 3 3 3 3 3 3 2 2 2 2 2 2 2 2 2 1 1 1 1 2 3 3 3 4 4 4 4 4
3 2 2 2 2 2 2 2 2 2 2 2 2 2 2 2 2 2 2 2 2 2 2 2 2 1 1 1 1 1 1 1 1 0 1 2 2 3 3 3 3 3 3
2 2 2 2 2 1 1 1 1 1 1 1 2 2 2 2 2 1 1 1 1 1 1 1 1 1 1 1 1 1 0 -0 0 -0 -0 0 1 2 2 3 3 3 3
Wind_Speed
1 2 4 7 10 11 12 13 13 13 13 13 14 14 14 14 14 14 13 14 14 13 13 13 14 14 14 15 14 14 14 14 14 14 13 13 13 13 14 13 13 12 13
0 3 6 9 11 11 12 13 13 13 13 13 14 14 14 14 14 13 13 14 14 14 13 13 13 14 14 14 14 14 14 14 14 13 13 12 12 13 13 13 13 11 13
4 6 7 10 11 11 12 12 13 13 13 13 13 14 14 14 13 13 13 13 13 13 13 13 13 13 13 13 13 13 13 13 13 12 11 10 10 12 12 12 12 12 12
7 7 8 10 11 11 12 12 12 12 12 13 13 14 14 13 13 13 13 14 13 13 13 13 13 13 12 12 12 12 12 12 11 11 10 9 9 10 11 11 11 11 11
8 8 9 11 12 11 12 12 12 12 12 13 13 13 13 13 13 13 13 13 13 13 12 12 12 12 11 11 10 11 12 11 11 10 10 9 8 9 10 10 10 10 10
8 9 10 12 11 11 11 12 11 12 12 12 12 12 13 13 13 13 13 13 12 12 12 12 12 12 11 10 10 11 11 11 10 9 9 8 7 8 9 9 9 9 9
7 9 10 12 12 12 12 12 12 12 12 12 12 12 12 12 12 13 13 13 13 13 12 11 11 11 11 10 10 11 11 10 9 9 8 7 7 7 8 8 8 8 7
8 9 10 11 11 11 12 11 11 12 12 12 11 12 12 12 12 12 13 13 13 13 13 12 11 11 11 12 11 11 11 10 9 8 7 6 7 7 7 7 7 7 7
10 9 10 10 10 11 11 12 12 12 12 12 12 12 12 12 12 12 12 13 13 13 13 12 12 12 11 12 12 11 11 10 9 7 6 6 6 6 6 6 6 6 6
8 8 8 9 10 10 10 11 11 11 12 12 13 12 11 12 12 12 12 12 12 12 12 12 13 12 12 12 12 11 10 10 9 7 6 5 5 5 5 5 5 5 6
6 5 6 7 8 9 9 10 10 11 11 11 11 12 11 11 10 10 11 11 12 12 12 12 12 12 12 12 12 12 10 9 8 7 6 6 5 4 5 5 5 5 5
3 3 4 5 6 7 7 8 9 9 10 11 11 11 10 10 10 9 10 11 11 11 11 12 11 11 10 10 11 11 9 9 8 7 7 7 6 4 4 4 4 4 4
3 3 3 4 5 6 6 6 7 8 9 10 11 10 9 9 9 9 9 9 10 10 10 11 11 10 9 9 9 9 9 8 7 6 7 7 6 5 4 3 3 3 3
4 3 3 4 5 5 6 6 7 7 8 8 9 9 9 8 8 8 8 8 8 8 9 9 8 9 9 9 8 8 8 8 7 7 7 8 7 5 4 3 3 3 2
4 3 2 3 4 5 6 5 6 6 7 7 8 9 9 7 6 6 7 8 8 8 8 7 8 8 7 7 7 7 7 7 7 7 7 8 7 6 5 4 3 2 2
4 3 2 3 4 5 5 5 5 6 6 7 8 8 9 8 7 6 6 7 7 7 7 7 7 6 5 5 6 6 6 5 6 7 7 7 7 7 6 5 4 3 2
5 4 3 2 4 4 5 5 5 5 6 6 7 8 8 8 8 7 6 6 7 7 7 7 7 6 5 5 5 5 5 5 5 6 7 6 6 7 7 6 5 4 4
5 4 3 3 3 3 4 4 5 5 6 6 6 7 8 8 8 7 6 6 7 7 7 5 4 3 4 4 4 4 4 4 4 5 6 6 6 6 7 7 6 5 5
6 5 4 3 3 3 4 4 5 5 5 5 6 6 6 7 7 7 5 6 7 7 6 5 3 3 3 4 4 3 3 3 3 4 4 6 6 7 7 7 6 6 6
5 5 4 4 3 3 4 4 4 4 4 5 5 5 6 6 6 6 5 6 6 4 4 3 3 3 2 3 3 4 4 3 2 2 3 5 6 6 7 6 6 6 6
5 5 4 4 3 3 2 2 2 1 1 2 4 5 5 6 6 6 4 5 5 3 3 3 2 3 3 3 2 3 3 3 2 2 3 3 5 6 6 6 6 6 5
6 5 5 5 4 3 2 1 1 1 1 1 2 4 5 5 5 4 4 3 3 2 3 3 3 2 2 3 2 2 3 3 3 3 2 2 3 5 5 7 6 6 6
7 6 6 5 4 4 3 2 2 2 2 1 2 2 3 4 4 4 4 3 3 2 2 2 2 2 1 2 2 1 1 2 4 3 3 3 3 3 4 6 7 7 6
7 6 5 5 4 3 3 4 3 2 1 1 0 0 2 3 4 4 4 4 3 2 2 2 3 2 1 1 2 1 1 1 2 3 3 3 4 4 4 5 6 7 7
6 6 5 4 4 3 3 4 3 2 1 0 1 1 1 2 3 3 4 3 3 2 2 2 2 2 1 1 1 2 1 1 1 2 5 5 5 4 4 5 5 5 6
5 5 5 5 4 3 4 3 3 3 2 1 0 0 1 1 2 3 3 3 2 2 2 2 1 1 1 2 2 1 1 2 2 2 4 6 6 6 5 4 4 5 6
Wind_Direction
319 13 70 75 77 74 72 71 69 66 65 64 66 66 67 65 63 62 62 59 57 58 58 57 57 57 56 54 55 57 59 59 62 62 62 66 71 75 75 73 72 73 79
115 70 78 80 81 78 76 74 72 69 67 67 66 66 65 63 62 60 59 58 55 55 57 56 56 55 54 52 52 55 58 59 60 62 59 60 68 73 75 74 74 77 78
76 74 78 80 81 82 80 77 73 72 70 69 68 67 65 62 62 60 59 57 54 53 53 54 55 52 51 51 50 51 52 53 55 62 57 53 62 70 74 75 76 77 78
84 77 81 79 80 81 82 80 76 73 72 70 69 67 66 63 61 60 58 56 53 52 51 50 51 49 47 46 48 47 49 51 55 59 52 48 54 68 72 75 76 76 76
79 76 82 80 78 79 81 81 78 74 72 72 69 68 68 65 63 62 59 54 51 50 50 49 47 46 45 45 46 47 49 48 53 53 46 44 48 64 72 75 74 74 75
74 75 80 79 78 77 78 79 78 75 74 73 69 67 67 65 64 63 60 55 52 49 48 47 44 42 42 42 45 45 46 49 51 44 41 40 43 61 70 74 73 74 76
74 71 79 76 73 73 73 74 74 74 74 73 70 67 66 64 62 61 58 54 50 48 46 44 43 39 40 39 40 42 45 52 51 43 40 38 41 57 68 72 72 75 81
84 72 73 75 72 69 67 68 70 70 69 68 68 67 65 62 61 59 57 54 50 47 45 44 41 36 37 37 39 41 46 51 47 43 38 34 41 52 63 68 68 70 77
83 73 66 66 67 66 66 64 67 70 67 65 66 67 64 61 57 56 55 53 50 46 43 40 38 37 36 35 36 38 44 47 46 42 35 30 38 49 58 67 67 70 76
76 70 68 68 67 64 63 64 63 66 66 66 65 63 62 59 57 55 51 50 48 45 43 39 37 36 34 34 33 34 38 40 41 38 31 24 32 42 49 58 65 71 73
78 61 66 68 67 68 68 66 63 64 63 61 60 61 60 56 56 51 50 47 46 42 39 37 35 33 33 31 30 32 34 32 35 33 25 19 25 36 44 48 56 64 71
95 71 62 69 69 70 72 68 62 61 61 58 57 59 57 56 56 51 49 43 40 37 34 32 31 28 27 25 26 31 31 31 34 27 21 18 20 27 33 39 49 55 64
127 94 62 71 79 77 75 74 67 66 62 58 56 56 57 53 49 46 43 38 35 33 30 24 25 23 21 22 23 28 29 31 28 19 15 14 11 16 19 31 41 50 51
117 101 76 79 77 78 84 82 77 71 65 57 52 52 55 50 44 42 40 35 35 30 26 24 21 18 19 18 24 29 28 26 18 15 15 12 7 12 13 16 21 36 42
124 112 100 88 81 81 83 80 77 73 71 63 55 51 54 52 43 41 39 34 30 28 26 23 22 17 14 14 22 28 23 20 17 13 6 9 11 12 16 8 8 4 15
142 132 114 92 86 84 82 82 82 80 78 70 61 53 54 56 49 44 38 31 26 24 24 23 22 15 10 13 13 16 17 18 16 13 8 5 6 9 12 14 11 7 1
156 142 129 117 92 91 93 93 89 85 79 71 62 56 55 55 53 48 39 30 20 20 25 24 22 18 15 15 9 4 12 14 16 14 12 12 9 11 14 12 8 359 344
154 150 150 124 102 95 91 92 91 88 81 72 65 57 53 52 53 51 42 26 21 25 28 25 24 13 10 6 356 350 359 4 9 16 22 24 24 17 10 8 3 353 337
160 153 144 129 126 114 100 93 92 88 80 71 62 57 52 49 49 52 45 30 27 31 29 20 21 15 4 359 351 354 350 352 359 15 26 30 25 18 10 3 358 350 342
157 150 145 139 134 119 105 93 81 73 66 63 58 51 47 47 46 48 45 33 33 32 22 14 9 9 359 346 350 353 335 337 359 17 24 21 13 6 3 1 355 345 339
152 152 154 148 146 133 121 113 104 81 52 45 55 52 48 48 47 47 39 31 29 27 10 6 6 5 4 358 8 351 340 337 340 1 5 2 3 355 357 359 355 350 340
165 168 167 165 161 155 154 153 148 144 120 80 63 49 45 44 43 45 41 28 20 18 10 8 12 0 352 9 15 2 343 335 340 328 319 325 341 350 350 344 343 341 338
173 177 177 174 165 159 140 114 93 65 54 54 30 25 34 41 43 44 41 32 18 27 8 360 5 12 337 347 14 54 19 295 315 308 317 314 321 324 330 328 329 326 323
182 177 171 167 158 155 140 140 138 133 148 222 234 350 14 33 39 41 38 36 27 29 18 3 22 351 341 319 332 359 255 255 287 306 307 313 318 310 305 316 311 308 312
176 172 167 158 157 157 154 158 151 141 158 108 46 51 12 16 25 32 35 38 28 21 17 15 12 1 341 297 298 309 317 302 261 273 293 306 312 296 299 296 296 299 300
166 164 161 160 164 168 166 164 158 157 156 137 84 353 333 343 356 10 26 26 16 6 357 352 357 349 329 317 306 291 275 270 280 275 282 297 302 300 300 290 291 289 297
Height
1548 1548 1549 1549 1549 1548 1547 1547 1547 1546 1546 1546 1545 1545 1544 1544 1543 1543 1543 1542 1542 1542 1541 1541 1541 1540 1540 1540 1539 1539 1539 1539 1539 1538 1538 1538 1538 1538 1538 1538 1538 1538 1538
1547 1548 1548 1548 1548 1548 1548 1547 1547 1547 1546 1546 1546 1545 1545 1544 1544 1543 1543 1543 1543 1542 1542 1541 1541 1541 1541 1541 1540 1540 1540 1540 1540 1540 1539 1539 1539 1539 1539 1539 1539 1539 1539
1547 1547 1548 1548 1548 1548 1548 1547 1547 1547 1546 1546 1546 1545 1545 1544 1544 1544 1543 1543 1543 1543 1542 1542 1542 1541 1541 1541 1541 1541 1541 1541 1540 1540 1540 1540 1540 1540 1540 1540 1541 1540 1541
1546 1547 1547 1548 1548 1547 1547 1547 1547 1547 1546 1546 1546 1545 1545 1545 1544 1544 1543 1543 1543 1543 1542 1542 1542 1542 1541 1541 1541 1541 1541 1541 1541 1541 1541 1541 1541 1541 1541 1541 1542 1542 1542
1546 1547 1547 1547 1547 1547 1547 1547 1547 1547 1546 1546 1546 1545 1545 1544 1544 1544 1543 1543 1543 1542 1542 1542 1542 1542 1541 1541 1541 1542 1542 1542 1542 1541 1542 1542 1542 1542 1542 1542 1542 1542 1542
1546 1546 1547 1547 1547 1547 1547 1547 1547 1546 1546 1546 1545 1545 1545 1544 1544 1543 1543 1542 1542 1542 1542 1542 1542 1541 1541 1541 1541 1541 1542 1542 1542 1542 1542 1542 1542 1542 1542 1542 1542 1543 1543
1545 1546 1546 1546 1546 1546 1546 1546 1546 1546 1546 1545 1545 1545 1544 1544 1543 1543 1543 1542 1542 1542 1541 1541 1541 1541 1541 1541 1541 1541 1541 1542 1542 1542 1542 1542 1542 1542 1542 1543 1543 1543 1543
1545 1545 1545 1546 1546 1546 1546 1546 1546 1545 1545 1544 1544 1544 1544 1543 1543 1543 1542 1542 1541 1541 1541 1541 1541 1541 1541 1541 1541 1541 1541 1541 1541 1541 1542 1542 1542 1542 1542 1542 1543 1543 1543
1544 1545 1545 1545 1545 1545 1545 1545 1545 1545 1544 1544 1543 1543 1543 1542 1542 1542 1542 1541 1541 1541 1541 1540 1540 1540 1540 1540 1540 1540 1541 1541 1541 1541 1541 1541 1542 1542 1542 1542 1542 1542 1543
1543 1544 1544 1545 1545 1545 1545 1545 1545 1544 1544 1543 1543 1542 1542 1542 1542 1541 1541 1541 1540 1540 1540 1540 1539 1539 1539 1539 1539 1540 1540 1540 1540 1540 1541 1541 1541 1541 1541 1541 1541 1542 1542
1542 1543 1543 1544 1544 1544 1544 1544 1544 1544 1543 1543 1542 1542 1541 1541 1541 1540 1540 1540 1539 1539 1539 1539 1538 1538 1538 1538 1538 1538 1538 1539 1539 1539 1540 1540 1540 1540 1540 1540 1540 1541 1541
1540 1541 1542 1543 1543 1543 1543 1543 1543 1543 1542 1542 1542 1541 1541 1540 1540 1540 1539 1539 1538 1538 1538 1537 1537 1537 1537 1537 1537 1537 1537 1537 1538 1538 1538 1538 1538 1538 1538 1539 1539 1539 1539
1539 1540 1541 1541 1542 1542 1542 1542 1542 1542 1541 1541 1541 1540 1540 1539 1539 1538 1538 1538 1537 1537 1536 1536 1536 1536 1536 1536 1536 1536 1536 1536 1536 1536 1536 1537 1537 1537 1537 1537 1537 1537 1538
1537 1538 1539 1540 1540 1541 1541 1541 1541 1541 1540 1540 1540 1539 1539 1538 1538 1537 1537 1536 1536 1536 1535 1535 1534 1534 1534 1534 1534 1534 1534 1534 1534 1534 1534 1534 1535 1535 1535 1535 1535 1536 1536
1536 1537 1538 1538 1539 1539 1540 1540 1539 1539 1539 1539 1538 1538 1538 1537 1537 1536 1536 1535 1535 1534 1534 1533 1533 1533 1533 1533 1533 1532 1532 1532 1532 1532 1532 1532 1533 1533 1533 1533 1533 1534 1534
1534 1535 1536 1537 1537 1538 1538 1538 1538 1538 1538 1538 1537 1537 1536 1536 1535 1535 1534 1534 1534 1533 1532 1532 1531 1531 1531 1531 1531 1530 1530 1530 1530 1530 1530 1530 1530 1530 1530 1530 1530 1531 1531
1532 1533 1534 1535 1535 1536 1536 1536 1537 1537 1537 1536 1536 1536 1535 1535 1534 1533 1533 1533 1532 1532 1531 1530 1530 1529 1529 1528 1528 1528 1528 1527 1527 1527 1527 1527 1527 1527 1527 1528 1528 1528 1528
1530 1531 1532 1533 1533 1534 1534 1535 1535 1535 1535 1535 1534 1534 1533 1533 1532 1532 1531 1531 1530 1530 1529 1529 1528 1527 1527 1526 1526 1525 1525 1525 1525 1524 1524 1524 1524 1524 1524 1524 1524 1525 1525
1528 1528 1529 1530 1531 1532 1532 1533 1533 1533 1533 1533 1533 1532 1532 1531 1531 1530 1529 1529 1528 1528 1527 1527 1526 1525 1525 1524 1523 1523 1523 1522 1522 1522 1522 1521 1521 1521 1521 1521 1521 1522 1522
1525 1526 1527 1528 1529 1529 1530 1530 1531 1531 1531 1531 1531 1531 1530 1529 1529 1528 1527 1527 1526 1526 1525 1525 1524 1524 1523 1522 1521 1521 1520 1520 1519 1519 1519 1519 1519 1518 1518 1518 1518 1518 1519
1522 1523 1524 1525 1526 1526 1527 1527 1528 1528 1529 1529 1529 1528 1528 1527 1527 1526 1525 1525 1524 1524 1523 1522 1522 1522 1521 1520 1519 1518 1518 1517 1516 1516 1517 1516 1516 1516 1515 1515 1515 1515 1515
1518 1519 1520 1522 1523 1524 1524 1525 1526 1526 1526 1527 1526 1526 1526 1525 1524 1524 1523 1523 1522 1521 1521 1520 1520 1519 1519 1518 1517 1516 1515 1515 1514 1514 1513 1513 1513 1513 1512 1512 1512 1512 1512
1514 1515 1517 1518 1520 1521 1522 1523 1523 1523 1523 1524 1524 1524 1523 1523 1522 1522 1521 1520 1519 1519 1518 1517 1517 1517 1516 1516 1516 1516 1515 1513 1512 1510 1510 1510 1510 1509 1509 1509 1508 1508 1508
1511 1513 1514 1516 1517 1518 1519 1519 1520 1520 1520 1521 1521 1521 1520 1520 1520 1519 1518 1518 1517 1516 1516 1515 1515 1514 1514 1513 1514 1513 1514 1513 1512 1508 1507 1507 1506 1506 1505 1505 1504 1504 1504
1508 1510 1511 1513 1514 1515 1516 1517 1518 1518 1518 1518 1518 1518 1518 1517 1517 1516 1516 1515 1514 1514 1513 1512 1512 1512 1511 1511 1511 1510 1510 1510 1509 1508 1504 1502 1502 1501 1501 1501 1500 1500 1499
1505 1506 1508 1509 1511 1512 1513 1514 1515 1515 1515 1515 1515 1515 1515 1514 1514 1513 1513 1512 1512 1511 1510 1509 1509 1509 1508 1508 1507 1507 1507 1506 1505 1505 1502 1499 1497 1496 1496 1496 1496 1496 1495